Location: Unspecified
(0.0000°N, 0.0000°E)
Time: 18:28:38
(UTC+00:00)

Vanguard 3 - Pass Details

Date: 04 February 2023
Orbit: 509 x 3249 km, 33.3° (Epoch: 20 March)

Event Time Altitude Azimuth Distance (km) Brightness Sun altitude
Rises 23:42:50 0° 320° (NW) 6,340 - -71.9°
Reaches altitude 10° 23:47:20 10° 329° (NNW) 5,629 - -72.4°
Maximum altitude 00:03:46 38° 31° (NNE) 4,302 - -73.4°
Drops below altitude 10° 00:20:30 10° 92° (E) 5,804 - -73.6°
Exits shadow 00:20:42 10° 92° (E) 5,835 11.5 -73.6°
Sets 00:25:07 0° 100° (E) 6,555 11.9 -73.4°
